Location: York
(31.8935°S, 116.7682°E)
Time: 16:06:59
(UTC+08:00)

A-11 Canister half - Visible Passes

Search period start: 25 September 2022 00:00
Search period end: 05 October 2022 00:00
Orbit: 1524 x 1684 km, 47.3° (Epoch: 24 September)

Date Brightness Start Highest point End Pass type
(mag) Time Alt. Az. Time Alt. Az. Time Alt. Az.
25 Sep 10.1 03:22:24 24° N 03:27:26 37° NE 03:36:21 10° ESE visible
25 Sep 9.2 05:21:57 10° WNW 05:32:08 73° SW 05:42:09 10° SE visible
26 Sep 10.1 03:02:27 29° NNE 03:05:47 35° NE 03:14:31 10° ESE visible
26 Sep 9.2 05:00:47 12° WNW 05:10:23 76° SW 05:20:28 10° SE visible
27 Sep 10.1 02:42:23 31° NE 02:44:07 33° NE 02:52:41 10° ESE visible
27 Sep 9.1 04:40:42 19° WNW 04:48:39 79° SW 04:58:45 10° SE visible
28 Sep 10.2 02:22:13 30° NE 02:22:26 31° NE 02:30:49 10° ESE visible
28 Sep 9.1 04:20:32 27° WNW 04:26:55 82° SW 04:37:03 10° SE visible
29 Sep 10.3 02:01:57 28° ENE 02:01:57 28° ENE 02:08:57 10° ESE visible
29 Sep 9.1 04:00:16 37° NW 04:05:11 86° SW 04:15:21 10° SE visible
30 Sep 10.5 01:41:37 24° ENE 01:41:37 24° ENE 01:47:02 10° ESE visible
30 Sep 9.0 03:39:56 48° NW 03:43:27 89° SW 03:53:37 10° SE visible
01 Oct 10.7 01:21:13 20° E 01:21:13 20° E 01:25:07 10° ESE visible
01 Oct 9.0 03:19:31 62° NW 03:21:43 88° NE 03:31:55 10° SE visible
01 Oct 9.8 05:18:22 10° W 05:27:50 41° SSW 05:37:09 10° SE visible
02 Oct 10.9 01:00:45 16° E 01:00:45 16° E 01:03:10 10° ESE visible
02 Oct 8.9 02:59:02 76° NNW 03:00:00 84° NE 03:10:11 10° SE visible
02 Oct 9.8 04:57:20 13° W 05:06:01 42° SSW 05:15:26 10° SE visible
03 Oct 11.1 00:40:13 12° E 00:40:13 12° E 00:41:10 10° E visible
03 Oct 9.0 02:38:30 80° ENE 02:38:30 80° ENE 02:48:27 10° SE visible
03 Oct 9.8 04:36:48 18° W 04:44:13 44° SSW 04:53:42 10° SE visible
04 Oct 9.2 02:17:55 68° E 02:17:55 68° E 02:26:44 10° SE visible
04 Oct 9.7 04:16:12 23° W 04:22:24 45° SSW 04:31:58 10° SE visible
